Wind_Speed
17 17 16 16 15 15 14 14 14 13 13 14 15 16 17 17 18 18 17 16 16 16 15 15 14 14 13 13 12 12 11 11 10 10 9 9 8 8 7 7 6 5 4 4 4 5 6 7 8 10 12 14 15 15 15 14 14 14 14 14 14 14 14 14 14 14 13 13 13
19 18 17 16 16 15 15 15 15 15 15 15 15 16 17 18 18 18 18 17 16 16 15 15 14 13 13 12 12 11 11 10 10 9 9 9 8 8 7 7 7 6 6 5 5 5 6 7 8 10 12 13 15 15 15 15 15 15 15 15 15 15 15 15 15 14 14 14 14
19 18 18 17 17 16 16 16 16 16 16 16 16 17 17 18 18 18 18 17 17 16 15 14 14 13 12 12 11 10 10 9 9 9 9 9 8 8 8 7 7 7 7 7 6 7 7 8 8 9 11 12 14 15 15 15 16 16 16 16 16 16 16 16 16 15 15 15 14
19 19 18 17 17 16 16 16 16 16 17 17 17 17 17 18 18 18 18 18 17 16 15 14 13 12 12 11 10 10 9 9 9 9 9 9 8 8 8 8 8 8 8 8 8 8 8 8 9 9 10 11 12 14 15 15 16 16 16 17 17 17 17 17 17 17 16 16 15
19 19 18 17 16 15 15 15 16 16 17 17 17 17 17 18 18 18 18 18 17 16 15 14 13 12 11 10 9 9 9 9 9 9 9 9 9 9 8 9 9 9 9 9 9 9 9 9 9 9 10 10 11 12 14 15 16 16 17 17 18 18 18 18 18 18 17 17 16
19 18 17 16 16 16 16 16 16 17 17 17 17 17 17 18 18 19 19 18 17 15 14 13 12 11 10 10 9 9 9 8 9 9 9 9 9 9 9 9 9 10 10 10 10 10 10 10 10 10 10 10 11 12 13 14 15 16 17 17 18 18 19 19 19 19 18 18 17
18 18 17 17 16 16 16 17 17 17 17 17 17 17 16 17 18 18 18 17 16 15 14 13 12 11 10 9 9 9 9 9 9 9 9 9 9 9 9 10 10 11 11 11 11 12 11 12 12 12 12 11 11 12 12 13 14 15 16 17 18 18 19 19 19 19 19 19 18
18 18 17 17 17 17 17 17 17 18 18 17 16 16 15 16 17 17 17 17 16 15 14 12 11 10 10 9 9 9 9 9 9 10 10 10 9 9 9 10 10 11 12 12 13 13 13 13 13 13 13 13 13 13 12 13 13 14 15 16 17 18 19 19 20 20 20 19 19
18 18 18 18 18 17 17 17 17 17 17 17 15 14 13 14 15 16 16 16 15 14 13 12 11 10 10 9 9 9 9 10 10 10 10 10 10 9 10 10 11 11 12 13 14 14 15 15 15 15 15 15 15 14 13 13 13 14 15 16 17 18 18 19 20 20 20 20 19
19 19 19 19 19 18 17 17 17 16 16 15 14 12 12 13 14 15 15 14 14 14 13 13 12 11 10 10 9 10 10 11 11 11 10 10 10 10 10 10 11 12 12 13 14 15 16 16 16 16 17 16 16 16 15 14 14 14 14 15 16 17 18 19 20 20 20 20 20
20 20 20 19 19 18 17 17 16 16 15 14 13 11 11 12 13 14 14 14 14 14 14 13 12 11 10 10 10 10 11 11 11 11 11 10 10 10 11 11 12 12 13 14 15 16 16 17 17 17 18 18 18 17 17 16 15 15 15 15 16 17 18 19 19 20 21 21 21
20 20 19 19 18 18 17 16 15 15 14 13 12 11 11 12 13 13 14 14 14 14 13 13 13 12 11 11 11 11 12 12 12 12 11 11 11 11 11 12 12 13 13 14 15 16 17 17 18 18 19 19 19 18 18 17 17 16 16 16 16 17 18 19 19 20 21 21 21
20 20 19 19 18 18 17 16 15 14 13 12 11 11 11 12 13 13 13 13 13 13 13 13 13 13 12 12 12 12 13 13 13 12 12 12 12 12 12 12 13 13 14 15 16 16 17 18 18 19 19 19 20 19 19 19 19 18 18 18 18 18 18 19 19 20 21 21 21
21 20 19 19 18 18 17 16 15 14 13 12 11 11 11 12 12 13 13 13 13 13 13 13 13 13 13 12 13 13 14 14 14 13 13 13 13 13 13 13 14 14 14 15 16 17 17 18 19 19 20 20 20 20 20 20 20 20 19 19 19 19 20 20 20 20 21 21 21
22 21 20 20 19 19 18 17 16 15 13 12 12 11 11 12 12 12 12 12 12 13 13 13 13 14 14 13 14 14 15 15 14 14 14 13 13 13 14 14 14 15 15 15 16 17 17 18 19 19 20 21 21 21 21 21 21 21 21 21 20 21 21 21 21 21 21 21 21
24 23 22 21 21 20 19 18 16 15 14 13 12 12 12 12 12 12 12 12 12 13 13 13 14 14 14 15 15 15 16 16 15 15 15 14 14 15 15 15 15 15 16 16 16 17 18 18 19 20 20 21 22 22 22 22 22 22 22 22 21 21 22 22 22 22 21 21 21
26 25 24 23 22 22 20 19 17 15 14 13 12 12 12 12 12 12 12 12 13 13 13 13 14 14 15 15 16 16 17 17 16 16 16 15 15 16 16 16 16 16 16 16 17 17 18 19 20 20 21 21 22 23 23 23 23 23 23 22 22 22 22 23 23 23 22 22 22
27 26 25 24 24 22 21 19 17 15 14 13 13 13 12 12 12 12 13 13 13 13 13 14 14 15 16 16 17 17 17 17 17 17 16 16 16 17 17 17 17 17 17 17 18 18 19 19 20 21 21 22 23 23 24 24 24 24 24 23 22 22 22 23 23 23 23 22 22
29 28 27 26 25 23 22 20 18 16 15 14 14 13 13 13 13 13 13 13 13 13 14 14 15 16 16 17 18 18 18 18 17 17 17 17 17 18 18 18 18 18 18 19 19 19 19 20 21 21 22 23 23 24 25 25 25 25 25 24 23 22 22 23 24 24 24 23 23
30 29 28 27 26 24 23 20 18 16 15 15 14 14 14 14 13 14 14 14 14 14 14 15 16 16 17 18 18 18 18 18 18 17 17 18 18 19 19 19 19 19 20 20 20 20 20 21 22 22 23 23 24 25 25 26 26 26 26 25 23 22 22 23 24 24 24 24 23
32 31 29 28 26 25 23 21 19 17 16 16 15 15 14 14 14 14 14 14 14 15 15 16 16 17 17 18 18 18 18 18 18 17 18 19 19 20 20 20 20 20 21 21 21 21 22 22 23 23 24 24 25 25 26 27 27 27 27 25 24 23 22 22 23 24 25 24 24
33 32 30 28 27 25 23 21 19 18 17 17 16 16 15 15 15 15 14 14 15 16 16 17 17 17 18 18 18 18 18 18 18 18 19 20 20 21 21 21 21 21 22 22 22 23 23 23 24 24 24 25 25 26 27 27 28 28 28 26 24 22 22 21 22 23 24 24 24
34 32 30 28 26 25 23 21 20 19 18 18 17 16 16 15 15 15 15 15 16 16 17 17 17 17 18 18 18 18 17 17 18 18 20 21 21 21 21 22 22 23 23 23 23 24 24 24 24 25 25 25 26 27 27 28 29 29 28 27 25 22 21 20 21 22 24 24 23
34 32 30 28 26 25 23 21 20 20 19 19 18 17 16 16 16 16 16 16 17 17 17 17 17 17 17 17 17 17 17 17 18 19 21 22 22 22 22 23 23 24 24 24 25 25 25 25 25 26 26 26 27 27 28 29 30 30 29 28 25 22 20 19 20 22 23 24 23
33 31 30 28 26 25 23 22 21 20 20 19 18 17 17 16 16 17 17 17 17 17 17 17 17 17 17 17 17 16 16 17 19 20 22 22 22 23 23 24 24 24 25 25 25 26 26 26 26 26 26 26 27 28 29 30 31 31 30 28 25 21 19 19 20 21 23 23 22
33 31 30 28 27 25 24 23 22 21 20 19 18 18 17 17 17 18 18 18 17 17 17 17 16 16 16 16 15 15 16 17 19 21 22 23 23 23 23 24 24 25 25 26 26 26 26 26 26 26 26 27 27 28 29 30 31 32 31 29 24 20 18 19 20 22 22 22 22
33 31 30 28 27 25 24 23 22 21 20 20 19 18 18 18 18 18 18 18 17 17 17 16 16 15 15 14 14 15 16 18 20 22 23 23 23 23 23 24 24 25 25 25 26 26 26 26 27 27 27 27 27 28 29 31 32 33 32 29 24 21 19 20 21 22 22 22 22
33 32 30 29 27 26 24 23 22 21 21 20 19 18 18 18 18 18 18 18 18 17 17 16 14 13 13 13 14 15 17 18 20 22 23 23 22 22 22 23 24 24 24 24 25 25 26 26 27 27 27 28 28 28 29 31 32 33 32 30 26 22 20 20 21 22 22 22 22
33 32 30 29 28 26 25 23 23 22 21 20 19 19 19 19 19 19 19 18 18 17 16 14 13 12 12 13 14 16 17 19 20 22 23 23 23 22 23 23 23 23 23 23 24 24 25 26 26 27 28 28 28 28 29 31 33 34 34 32 28 24 21 20 20 21 22 22 23
33 32 31 29 28 26 25 24 22 21 20 20 19 19 19 19 19 19 19 19 18 16 15 13 12 12 13 14 15 16 17 19 21 22 24 24 24 23 23 23 23 23 22 22 23 23 24 25 26 27 28 28 28 29 30 31 33 34 34 32 28 25 22 20 19 20 21 22 23
32 32 30 29 27 26 24 23 22 21 20 20 20 20 20 20 20 20 19 18 16 15 14 13 13 13 13 14 15 16 18 20 21 23 24 25 25 24 24 23 23 23 22 23 23 24 24 25 26 27 28 28 29 30 31 33 34 34 33 30 27 25 23 21 19 19 20 21 22
32 31 30 29 27 25 24 22 22 21 21 20 21 21 21 21 20 19 18 16 15 14 14 14 14 13 13 14 15 17 18 20 22 24 25 25 25 25 24 23 23 23 23 24 24 25 25 26 27 28 28 28 29 30 32 35 35 34 32 29 26 25 23 21 20 19 20 21 22
32 31 29 28 26 24 23 22 21 21 21 21 21 21 21 21 20 18 17 16 15 15 14 14 13 13 14 15 16 17 19 20 22 25 26 26 25 25 24 24 24 24 25 25 25 26 26 27 28 28 28 28 29 31 33 35 36 34 31 28 26 25 24 22 20 19 19 20 21
31 30 28 27 25 24 23 22 22 21 22 22 21 21 21 20 19 18 17 16 16 16 15 14 14 14 15 16 17 18 19 21 24 26 26 26 25 25 25 25 25 25 25 25 26 26 27 28 28 28 28 29 30 32 34 36 35 32 29 27 26 25 24 22 20 19 19 19 21
30 29 27 26 24 23 22 22 22 22 22 22 22 21 21 20 18 17 17 16 16 16 16 15 16 16 16 17 17 19 21 23 25 26 26 26 25 25 25 25 26 26 26 26 26 26 27 27 28 28 28 29 30 32 34 35 33 30 27 26 26 26 25 23 21 19 18 19 21
30 28 27 25 24 23 23 22 22 22 22 22 22 22 21 20 18 18 18 18 17 17 16 16 16 16 16 17 18 20 22 25 26 27 26 26 26 26 26 26 27 27 26 26 26 26 27 27 27 27 27 28 30 31 32 32 31 28 26 25 26 26 26 24 21 19 18 18 20
29 28 26 25 24 23 23 23 23 23 24 24 24 23 21 20 19 19 19 19 18 17 16 16 17 17 17 17 19 21 24 26 27 28 27 27 26 26 27 27 27 27 27 27 27 26 26 26 26 26 27 28 29 30 31 30 29 26 25 26 27 27 26 24 21 18 17 18 20
28 27 26 25 24 23 23 24 24 25 25 25 24 23 21 21 20 20 19 19 17 16 17 18 18 17 17 18 20 23 25 27 28 28 27 27 27 27 27 28 28 28 28 27 27 26 26 25 25 26 26 27 28 29 30 30 28 26 26 27 28 29 27 23 19 16 16 17 20
27 26 25 24 24 24 25 25 26 26 26 25 24 23 22 21 20 20 19 18 16 16 18 19 18 17 18 19 22 24 27 28 28 27 27 27 27 27 28 29 29 29 29 28 27 26 25 25 25 25 26 27 28 30 31 29 26 25 25 28 30 29 26 21 16 14 15 17 19
26 25 24 24 24 25 26 27 27 27 26 25 24 23 21 20 20 19 18 17 16 17 19 19 18 17 18 20 23 26 27 27 27 27 27 27 28 29 29 30 30 30 30 29 28 27 25 24 24 24 25 27 29 31 32 29 25 24 26 29 30 27 23 18 15 14 15 17 19
25 24 24 25 26 27 28 28 27 26 25 24 23 22 21 20 19 18 17 16 17 19 20 18 17 17 19 21 24 26 27 27 27 27 28 29 29 30 30 31 31 31 31 30 28 27 25 24 23 24 25 27 30 32 31 28 24 24 27 29 28 25 21 17 15 15 16 17 18
Wind_Direction
217 221 224 225 226 227 229 231 232 236 238 238 239 241 242 243 243 244 247 249 252 256 260 265 270 275 280 285 290 295 301 306 311 315 318 322 325 328 331 336 341 345 347 347 350 354 0 7 11 14 15 14 12 9 7 5 3 1 358 355 354 352 350 348 345 341 339 337 335
217 221 223 225 226 227 229 230 231 233 235 237 238 240 242 243 243 244 246 248 251 254 259 263 268 272 277 283 289 296 303 308 311 315 318 321 324 326 330 336 343 347 350 349 349 351 355 359 4 8 11 11 10 8 6 4 2 360 357 356 354 353 351 350 347 344 340 338 335
218 220 222 224 225 228 229 231 231 231 231 232 235 237 240 242 243 244 246 248 251 254 258 262 266 270 275 282 291 300 307 312 314 317 318 321 323 325 330 336 342 347 349 349 347 347 349 352 355 360 3 6 6 4 3 1 0 358 357 356 354 353 353 351 349 345 342 339 336
218 220 222 224 226 229 231 233 232 230 229 230 232 234 237 240 243 244 246 249 252 254 258 261 265 269 275 283 294 304 312 316 318 318 319 321 322 325 329 334 340 344 346 345 344 342 342 343 345 349 353 357 359 360 359 358 358 357 356 355 355 354 353 352 349 346 343 340 336
219 221 222 224 227 230 233 235 233 231 229 230 231 234 237 241 243 245 247 250 252 255 258 261 264 269 276 286 297 306 313 316 319 319 320 321 322 325 328 333 336 339 340 341 339 337 336 335 335 336 340 346 350 353 354 354 354 355 355 355 355 354 353 352 350 347 344 340 336
219 220 221 224 226 229 231 233 233 233 232 232 233 236 241 244 247 248 250 252 254 256 258 259 263 269 279 289 299 307 312 315 317 319 321 321 323 325 327 330 331 333 334 335 334 332 330 328 326 326 328 333 339 344 348 349 350 352 354 355 355 355 354 352 350 347 344 340 336
219 219 220 221 224 226 229 231 233 233 234 235 237 240 245 249 251 252 254 256 256 256 256 259 264 271 282 292 300 306 311 314 317 319 321 321 322 323 324 325 325 326 327 328 328 327 325 322 319 319 320 323 328 334 339 343 345 348 350 353 354 354 354 352 350 348 345 341 337
218 218 219 220 222 224 227 230 233 234 236 238 240 245 250 254 256 257 257 257 256 256 256 259 266 275 284 293 301 306 310 313 316 318 320 321 320 320 319 319 319 319 320 321 322 322 320 318 315 314 314 316 319 323 329 333 338 342 345 348 350 351 352 351 349 348 345 342 338
215 216 217 218 220 222 226 229 233 236 238 241 243 248 254 258 259 260 259 257 256 255 257 261 267 276 285 293 300 304 308 311 313 315 317 318 316 314 313 312 311 311 313 314 316 316 315 313 311 310 310 311 313 316 319 324 328 333 338 341 343 345 346 347 347 346 344 342 338
212 213 214 216 218 220 223 227 231 235 238 240 242 248 256 262 263 262 259 257 255 255 257 261 268 276 285 292 298 302 305 307 309 311 313 313 311 309 307 306 305 305 306 308 309 309 308 307 305 304 305 307 308 310 312 315 319 323 328 333 335 338 339 341 342 342 342 341 338
211 212 213 214 216 218 220 224 228 231 234 236 240 249 260 266 266 262 258 254 253 254 257 263 270 277 284 291 295 299 301 303 305 307 309 308 306 304 302 300 300 300 301 302 303 302 302 300 299 298 300 301 303 305 307 309 312 315 319 324 328 330 332 334 336 337 339 339 338
212 212 213 214 216 218 220 224 228 231 233 236 242 253 264 269 266 261 256 253 253 255 259 265 271 278 284 289 293 296 298 300 302 304 305 304 302 299 297 295 295 296 297 297 297 297 295 294 293 293 294 296 298 300 302 305 307 309 312 316 320 323 325 326 328 331 333 335 336
215 214 215 216 218 220 223 226 231 234 236 239 247 257 266 269 265 259 255 254 255 258 262 267 273 279 284 288 292 294 295 296 298 300 300 299 296 294 292 290 291 291 292 293 293 292 291 290 289 289 290 292 294 297 299 301 304 306 308 311 314 317 318 320 321 324 327 330 332
218 218 218 219 221 224 227 231 235 238 241 244 251 259 265 266 261 257 256 256 258 260 264 270 275 280 284 288 291 291 292 293 294 295 296 294 291 289 287 286 286 287 287 288 289 288 287 287 287 287 288 289 292 294 297 299 302 304 306 308 311 313 314 315 316 317 320 324 328
221 221 222 222 225 228 231 235 239 241 244 247 252 258 262 262 259 258 257 258 259 262 267 272 277 281 285 288 289 289 290 291 291 291 290 289 287 285 284 283 283 283 283 284 285 285 285 285 285 285 286 287 290 292 295 297 300 302 304 307 310 312 312 312 311 312 314 318 323
224 223 223 224 226 230 234 238 241 244 246 249 253 256 259 260 260 259 259 258 259 263 268 273 278 281 284 285 286 286 287 287 288 287 286 285 284 283 282 281 280 280 280 281 283 284 285 285 284 284 285 286 288 291 293 295 298 300 303 305 308 310 311 310 309 308 310 314 319
227 226 225 226 228 231 235 240 243 247 250 251 253 256 258 260 261 261 260 259 260 264 269 274 278 280 281 281 282 282 282 283 283 283 283 283 283 282 280 279 279 278 279 280 282 283 283 283 282 282 283 285 287 289 292 294 296 298 300 303 306 309 310 309 307 306 307 310 315
230 230 229 228 230 233 237 241 245 249 251 253 254 255 257 260 261 261 261 261 262 265 270 274 276 277 277 277 277 277 277 278 279 280 281 282 282 281 279 278 278 278 278 279 280 281 281 280 280 280 281 282 285 288 291 293 294 296 297 299 302 305 307 308 306 305 305 307 311
233 232 232 231 232 235 238 242 246 249 251 252 253 254 256 258 260 261 261 261 263 266 269 272 272 273 272 272 272 272 273 274 275 277 279 281 280 279 278 277 277 277 277 279 280 280 279 279 279 279 279 281 284 287 290 291 292 293 294 295 298 301 304 305 305 304 303 305 309
235 235 234 235 235 237 239 243 246 249 250 251 250 251 253 255 257 259 259 261 263 265 266 267 268 268 268 268 268 269 269 271 272 274 277 279 279 278 276 276 276 276 277 278 279 278 278 278 279 279 279 281 283 286 289 290 290 290 290 291 293 297 301 303 303 303 303 303 306
237 237 237 237 238 240 241 243 246 247 247 247 247 249 251 253 256 258 259 261 262 262 263 263 264 265 265 265 266 266 268 269 270 273 276 278 277 276 276 276 275 276 277 277 277 278 278 279 279 280 280 281 284 286 288 289 288 287 286 285 287 291 296 300 302 302 301 302 304
237 238 238 239 240 241 243 243 244 244 244 244 245 246 249 252 255 257 259 260 259 259 259 260 261 262 264 264 265 266 267 269 271 274 276 277 276 275 275 275 275 276 276 277 278 279 280 280 280 280 281 282 284 287 288 288 286 284 282 281 282 286 292 298 301 301 300 299 302
237 238 238 239 240 241 241 241 241 241 240 241 242 244 247 251 255 257 257 256 256 257 258 258 259 260 262 263 264 265 266 269 274 278 279 277 276 275 275 275 275 276 276 277 278 279 280 281 280 281 281 283 285 287 288 286 284 281 278 276 277 281 289 297 300 300 298 297 300
237 237 237 238 239 239 239 238 237 237 237 239 240 243 246 250 253 254 254 254 255 256 256 257 257 259 260 262 262 262 264 269 277 282 282 278 276 275 275 275 275 276 277 279 280 280 281 281 281 281 281 283 285 287 287 285 282 279 275 272 272 278 289 297 300 298 295 295 299
236 236 236 237 237 236 236 235 235 235 236 238 240 243 246 249 252 253 253 253 253 254 254 254 255 257 258 260 260 261 265 273 281 285 283 278 276 275 275 275 276 277 278 279 280 281 281 281 281 281 282 283 285 285 285 283 280 276 272 268 269 277 290 298 299 296 293 293 298
235 235 235 235 235 234 234 233 233 234 236 237 239 242 245 248 250 251 251 251 250 250 250 251 253 255 257 258 260 264 270 277 284 286 284 279 276 275 275 275 276 277 278 280 280 281 281 281 281 281 281 282 283 284 283 281 278 274 270 266 268 278 291 298 297 294 291 292 297
234 234 234 234 233 233 233 233 233 233 235 236 239 242 245 247 248 249 248 247 246 246 246 248 251 254 256 258 263 269 275 280 283 285 284 279 277 275 275 276 277 278 279 280 281 282 281 281 281 280 280 281 282 282 282 280 277 274 269 265 269 279 291 296 295 291 290 291 296
233 232 232 232 232 232 232 232 232 232 234 236 238 241 244 245 246 245 244 242 242 242 244 246 250 253 258 263 270 274 278 281 283 284 283 279 277 277 278 278 279 279 281 282 282 282 282 281 279 278 278 279 280 281 281 280 278 274 269 266 271 280 289 293 292 289 289 291 294
232 232 231 231 231 230 230 230 230 231 233 235 238 240 241 242 241 241 239 238 239 240 242 244 247 252 259 267 273 277 280 282 283 283 282 279 279 280 281 282 282 283 283 284 283 282 281 280 278 277 277 278 279 279 280 280 279 275 271 270 274 282 289 290 289 288 288 290 293
231 231 231 230 230 230 230 229 230 231 233 234 236 237 238 238 238 237 237 237 237 238 240 242 247 253 260 267 274 278 280 281 282 282 282 281 282 284 285 286 286 286 286 286 285 283 281 279 278 277 277 278 278 278 279 280 279 276 272 272 278 284 288 287 286 286 287 288 291
230 230 230 229 229 229 229 230 230 230 231 232 234 234 235 235 235 235 235 234 234 235 238 243 249 255 262 269 275 279 280 281 282 283 283 284 286 287 288 289 288 288 288 288 287 285 283 281 279 279 279 279 278 279 280 279 276 273 270 273 279 284 285 284 284 284 286 287 290
229 229 228 228 228 228 229 229 229 229 229 230 232 233 233 233 232 231 230 229 229 233 239 246 252 259 267 273 277 279 280 281 283 283 284 286 288 290 290 290 290 290 290 290 289 288 286 285 283 282 281 281 280 281 280 277 272 269 270 276 281 283 282 281 281 283 284 286 289
227 227 226 226 227 228 228 227 227 227 228 229 230 230 230 228 227 225 224 224 228 235 242 250 257 265 272 277 280 280 280 282 283 284 285 287 289 290 291 291 291 291 291 291 290 289 288 287 286 285 284 283 283 282 279 274 270 269 274 280 281 280 279 278 279 280 283 286 289
225 225 224 225 226 227 226 226 226 226 227 227 227 226 224 221 220 219 222 227 233 240 248 256 264 272 277 280 281 282 282 283 283 284 286 288 289 290 290 290 290 290 290 290 289 288 288 287 287 286 286 285 284 281 277 272 271 274 279 282 281 278 276 275 275 277 280 285 289
224 223 223 224 225 225 225 224 224 225 225 223 221 219 217 216 216 219 225 233 240 248 255 263 270 276 280 282 281 282 283 284 284 284 286 287 288 289 289 289 289 289 289 288 288 287 287 287 286 286 285 284 282 280 276 274 276 280 284 283 279 276 273 271 270 272 277 284 290
222 222 223 224 224 224 223 223 222 221 220 218 216 214 214 214 218 224 232 241 249 256 262 268 275 280 282 282 281 282 283 283 283 284 285 286 287 287 287 287 288 287 287 287 287 286 286 286 286 285 284 283 281 279 278 278 282 284 284 281 277 273 270 266 264 267 274 284 291
222 222 223 224 224 223 222 221 219 217 215 214 214 214 215 217 223 232 241 250 257 262 267 272 279 282 283 283 283 283 283 282 283 283 284 285 285 286 287 287 287 287 287 286 286 286 286 286 286 285 283 282 281 280 279 280 282 284 283 280 275 270 264 259 259 264 275 286 293
221 222 223 224 223 222 220 218 216 215 214 214 214 215 218 223 230 240 249 257 261 265 271 278 283 285 285 284 283 283 282 282 283 284 284 285 286 287 287 287 287 287 286 286 286 286 287 287 286 285 284 283 282 280 278 276 278 282 284 281 275 266 258 254 255 265 279 289 295
221 222 223 222 221 219 216 215 215 214 215 215 216 219 223 229 238 247 255 259 261 268 277 285 288 287 285 283 283 282 282 283 283 284 285 286 287 288 288 288 288 287 287 287 286 286 286 287 286 286 285 283 281 278 273 271 275 282 286 282 274 265 256 251 256 270 284 292 297
221 221 221 219 218 216 215 215 215 215 216 217 219 223 229 236 245 252 255 257 264 276 287 291 290 286 283 282 282 282 283 284 284 285 286 287 288 288 289 289 289 288 287 286 286 285 286 287 287 286 284 282 279 274 270 268 275 284 286 280 272 263 256 254 262 275 287 294 298
219 218 217 216 216 216 215 215 215 216 217 220 223 228 235 242 248 251 254 261 276 289 295 294 289 284 283 282 282 283 284 285 286 287 287 288 289 290 290 290 289 288 287 285 284 284 285 286 286 284 282 280 278 273 269 269 277 285 285 279 270 262 258 260 268 278 287 293 297
Height
1543 1543 1544 1544 1544 1545 1545 1545 1545 1545 1546 1546 1546 1546 1547 1547 1547 1547 1547 1547 1547 1547 1547 1547 1548 1548 1547 1547 1547 1547 1547 1547 1546 1546 1546 1546 1546 1546 1546 1546 1546 1545 1545 1545 1545 1545 1545 1545 1544 1544 1544 1543 1543 1543 1542 1542 1541 1541 1540 1540 1539 1538 1538 1537 1536 1536 1536 1535 1535
1542 1543 1543 1543 1544 1544 1544 1545 1545 1545 1545 1545 1546 1546 1546 1546 1547 1547 1547 1547 1547 1546 1546 1547 1547 1547 1547 1547 1547 1546 1546 1546 1546 1546 1546 1546 1545 1545 1545 1545 1545 1545 1545 1545 1545 1545 1545 1544 1544 1544 1544 1544 1543 1543 1542 1542 1541 1541 1541 1540 1539 1538 1538 1537 1536 1536 1536 1535 1535
1542 1542 1542 1543 1543 1543 1544 1544 1544 1544 1545 1545 1545 1545 1546 1546 1546 1546 1546 1546 1546 1546 1546 1546 1546 1546 1546 1546 1546 1546 1546 1546 1545 1545 1545 1545 1545 1545 1545 1545 1544 1544 1544 1544 1544 1544 1544 1544 1544 1544 1544 1544 1544 1543 1543 1542 1542 1541 1541 1540 1539 1539 1538 1537 1536 1536 1535 1535 1534
1541 1541 1542 1542 1543 1543 1543 1544 1544 1544 1544 1544 1545 1545 1545 1546 1546 1546 1546 1546 1546 1546 1546 1546 1546 1546 1546 1546 1546 1545 1545 1545 1545 1545 1545 1545 1545 1545 1545 1544 1544 1544 1544 1543 1543 1543 1543 1543 1544 1544 1544 1544 1543 1543 1542 1542 1541 1541 1541 1540 1539 1539 1538 1537 1536 1536 1535 1535 1534
1541 1541 1541 1542 1542 1543 1543 1543 1544 1544 1544 1544 1544 1545 1545 1546 1546 1546 1546 1546 1546 1546 1545 1545 1545 1545 1545 1545 1545 1545 1545 1545 1545 1545 1545 1545 1545 1545 1545 1544 1544 1544 1543 1543 1543 1543 1542 1543 1543 1543 1543 1543 1543 1543 1542 1542 1541 1541 1540 1540 1539 1539 1538 1537 1536 1536 1535 1534 1534
1541 1541 1541 1542 1542 1542 1543 1543 1543 1544 1544 1544 1544 1544 1545 1545 1545 1545 1545 1546 1546 1546 1545 1545 1545 1545 1545 1545 1545 1545 1545 1545 1545 1545 1545 1545 1544 1544 1544 1544 1544 1544 1543 1543 1542 1542 1542 1542 1542 1542 1542 1542 1542 1542 1542 1541 1541 1541 1540 1540 1539 1538 1538 1537 1536 1536 1535 1534 1533
1540 1541 1541 1541 1541 1542 1542 1543 1543 1543 1544 1544 1544 1544 1544 1545 1545 1545 1545 1546 1546 1545 1545 1545 1544 1544 1544 1544 1544 1544 1544 1544 1545 1545 1544 1544 1544 1544 1544 1544 1544 1544 1543 1543 1542 1542 1542 1541 1541 1541 1541 1541 1541 1541 1541 1541 1541 1540 1540 1539 1539 1538 1538 1537 1536 1536 1535 1534 1533
1540 1540 1540 1541 1541 1541 1541 1542 1542 1543 1543 1543 1543 1544 1544 1545 1545 1545 1545 1545 1545 1545 1545 1544 1544 1544 1543 1543 1543 1544 1544 1544 1544 1544 1544 1544 1544 1543 1543 1543 1543 1543 1543 1543 1542 1542 1542 1541 1541 1541 1541 1541 1541 1541 1541 1540 1540 1540 1539 1539 1538 1538 1537 1537 1536 1535 1535 1534 1533
1539 1539 1540 1540 1540 1540 1541 1541 1542 1542 1542 1543 1543 1543 1544 1544 1544 1545 1545 1545 1545 1545 1544 1544 1544 1543 1543 1543 1543 1543 1543 1543 1543 1543 1543 1543 1543 1543 1543 1543 1543 1543 1543 1542 1542 1542 1542 1541 1541 1541 1541 1540 1540 1540 1540 1540 1540 1539 1539 1538 1538 1537 1537 1536 1536 1535 1534 1533 1532
1537 1538 1538 1539 1539 1539 1540 1540 1541 1541 1542 1542 1542 1542 1543 1543 1543 1544 1544 1544 1544 1544 1543 1543 1543 1543 1542 1542 1542 1542 1542 1543 1543 1543 1543 1542 1542 1542 1542 1542 1542 1542 1542 1542 1542 1542 1542 1541 1541 1541 1540 1540 1540 1539 1539 1539 1539 1539 1538 1538 1537 1536 1536 1536 1535 1535 1534 1533 1532
1536 1537 1537 1538 1538 1539 1539 1539 1540 1540 1541 1541 1541 1541 1541 1542 1542 1542 1543 1542 1542 1543 1542 1542 1542 1542 1542 1541 1541 1541 1541 1542 1542 1542 1542 1542 1541 1541 1541 1541 1541 1541 1541 1541 1541 1541 1541 1541 1541 1541 1540 1539 1539 1539 1538 1538 1538 1538 1537 1537 1536 1536 1535 1535 1534 1534 1533 1532 1531
1535 1536 1536 1537 1537 1537 1538 1538 1539 1539 1539 1539 1540 1540 1540 1540 1541 1541 1541 1541 1541 1541 1541 1541 1541 1541 1541 1541 1541 1541 1541 1541 1541 1541 1541 1541 1541 1541 1541 1541 1541 1541 1541 1541 1541 1541 1541 1541 1541 1540 1540 1539 1539 1538 1538 1537 1537 1537 1536 1536 1536 1535 1534 1534 1533 1533 1532 1531 1530
1534 1535 1535 1536 1536 1536 1536 1537 1537 1538 1538 1538 1538 1538 1538 1539 1539 1540 1540 1540 1540 1541 1541 1541 1541 1541 1541 1540 1540 1540 1540 1540 1540 1540 1540 1540 1540 1540 1540 1540 1539 1539 1539 1540 1540 1540 1540 1540 1540 1540 1539 1539 1538 1538 1537 1536 1536 1536 1536 1535 1535 1534 1533 1533 1532 1531 1531 1530 1529
1533 1533 1534 1534 1535 1535 1535 1536 1536 1536 1536 1537 1537 1537 1537 1537 1538 1538 1538 1539 1539 1540 1540 1540 1540 1540 1540 1540 1540 1540 1540 1540 1539 1539 1539 1539 1539 1539 1538 1538 1538 1538 1538 1538 1538 1538 1539 1539 1539 1539 1539 1538 1538 1537 1536 1536 1535 1535 1534 1534 1533 1533 1532 1532 1531 1531 1530 1529 1528
1531 1532 1532 1533 1533 1533 1534 1534 1535 1535 1535 1536 1536 1536 1536 1536 1536 1537 1537 1538 1538 1538 1539 1539 1539 1540 1540 1539 1539 1539 1539 1539 1539 1539 1538 1538 1538 1538 1537 1537 1537 1537 1537 1537 1537 1537 1537 1538 1538 1538 1538 1538 1537 1536 1536 1535 1535 1534 1533 1533 1532 1532 1531 1531 1530 1529 1529 1528 1527
1530 1530 1531 1531 1531 1532 1532 1533 1533 1534 1534 1534 1535 1535 1535 1535 1535 1536 1536 1537 1537 1537 1537 1538 1538 1539 1539 1539 1539 1538 1538 1538 1538 1538 1537 1537 1537 1537 1536 1536 1536 1536 1536 1536 1536 1536 1536 1536 1537 1537 1537 1536 1536 1535 1535 1534 1534 1533 1532 1532 1531 1531 1531 1530 1529 1528 1528 1527 1526
1528 1528 1529 1529 1530 1530 1531 1531 1532 1532 1533 1533 1533 1534 1534 1534 1534 1535 1535 1536 1536 1536 1536 1537 1537 1538 1538 1538 1538 1538 1537 1537 1537 1536 1536 1536 1536 1536 1536 1536 1535 1535 1535 1534 1534 1534 1534 1535 1535 1535 1535 1535 1535 1534 1534 1533 1532 1532 1531 1531 1530 1530 1529 1529 1528 1527 1526 1526 1525
1526 1526 1527 1527 1528 1529 1529 1530 1531 1531 1531 1532 1532 1532 1533 1533 1533 1533 1534 1534 1534 1535 1535 1535 1536 1536 1536 1536 1536 1536 1536 1536 1536 1535 1535 1535 1535 1535 1535 1535 1534 1534 1533 1533 1533 1533 1533 1533 1533 1533 1533 1533 1533 1532 1532 1531 1531 1530 1530 1529 1529 1529 1528 1528 1527 1526 1526 1525 1524
1525 1525 1526 1526 1526 1527 1528 1529 1529 1530 1530 1530 1531 1531 1531 1531 1532 1532 1532 1532 1533 1533 1533 1533 1534 1534 1534 1534 1535 1535 1534 1534 1534 1534 1534 1534 1534 1534 1534 1533 1533 1533 1532 1532 1531 1531 1531 1531 1531 1531 1531 1531 1531 1531 1530 1530 1529 1529 1528 1528 1528 1527 1527 1526 1526 1525 1525 1524 1523
1523 1523 1524 1524 1525 1526 1527 1527 1528 1528 1528 1529 1529 1529 1530 1530 1530 1531 1531 1531 1531 1531 1531 1531 1532 1532 1532 1532 1532 1532 1533 1533 1533 1533 1533 1533 1533 1532 1532 1532 1532 1531 1531 1531 1530 1530 1530 1529 1530 1530 1530 1530 1529 1529 1528 1528 1527 1527 1527 1526 1526 1526 1526 1525 1525 1524 1524 1523 1522
1521 1521 1522 1523 1524 1525 1525 1526 1526 1526 1527 1527 1527 1528 1528 1528 1529 1529 1529 1529 1530 1530 1530 1530 1530 1530 1531 1531 1531 1531 1531 1531 1531 1531 1531 1531 1531 1531 1531 1531 1531 1530 1530 1529 1529 1528 1528 1528 1528 1528 1528 1528 1527 1527 1526 1526 1526 1525 1525 1525 1525 1524 1524 1524 1523 1523 1522 1522 1521
1518 1519 1521 1521 1522 1523 1524 1524 1525 1525 1525 1526 1526 1526 1527 1527 1527 1527 1528 1528 1528 1528 1528 1528 1528 1529 1529 1529 1529 1530 1530 1530 1530 1530 1530 1530 1530 1530 1530 1530 1529 1529 1529 1528 1527 1527 1527 1527 1527 1527 1526 1526 1526 1526 1525 1525 1524 1524 1523 1523 1523 1523 1522 1522 1522 1522 1521 1521 1520
1516 1518 1519 1520 1521 1522 1522 1523 1523 1523 1524 1524 1525 1525 1525 1526 1526 1526 1526 1526 1526 1526 1526 1527 1527 1527 1528 1528 1528 1528 1528 1529 1529 1529 1529 1529 1529 1528 1528 1528 1528 1528 1527 1527 1526 1526 1526 1526 1525 1525 1525 1525 1525 1524 1524 1523 1522 1522 1522 1521 1521 1521 1521 1521 1521 1521 1520 1519 1518
1515 1516 1517 1518 1519 1520 1521 1521 1521 1522 1522 1523 1523 1524 1524 1524 1525 1525 1525 1525 1525 1525 1525 1526 1526 1526 1526 1526 1527 1527 1527 1527 1528 1528 1528 1527 1527 1527 1527 1527 1526 1526 1526 1526 1525 1525 1525 1524 1524 1524 1524 1523 1523 1523 1522 1521 1521 1521 1520 1520 1520 1519 1519 1520 1520 1519 1518 1518 1517
1514 1515 1516 1517 1517 1518 1519 1519 1520 1520 1521 1521 1522 1522 1523 1523 1523 1523 1523 1523 1524 1524 1524 1525 1525 1525 1525 1526 1526 1526 1526 1526 1526 1526 1526 1526 1526 1526 1526 1525 1525 1525 1524 1524 1524 1523 1523 1523 1523 1522 1522 1522 1522 1521 1521 1520 1520 1519 1518 1518 1518 1518 1518 1518 1518 1518 1517 1516 1516
1512 1513 1514 1515 1516 1516 1517 1517 1518 1519 1519 1520 1521 1521 1521 1521 1522 1522 1522 1522 1522 1523 1523 1523 1524 1524 1524 1525 1525 1525 1525 1525 1525 1525 1525 1525 1525 1524 1524 1524 1523 1523 1523 1522 1522 1522 1522 1521 1521 1521 1521 1521 1520 1520 1519 1519 1518 1517 1517 1516 1516 1516 1517 1516 1516 1516 1516 1515 1514
1511 1511 1512 1513 1514 1515 1515 1516 1516 1517 1518 1519 1519 1520 1520 1520 1521 1521 1521 1521 1521 1522 1522 1522 1523 1523 1523 1524 1524 1524 1524 1524 1524 1524 1524 1524 1523 1523 1522 1522 1522 1521 1521 1521 1521 1521 1520 1520 1520 1520 1519 1519 1519 1518 1518 1517 1516 1516 1515 1515 1515 1515 1515 1515 1515 1514 1514 1513 1513
1509 1510 1511 1512 1512 1513 1514 1515 1515 1516 1516 1517 1518 1518 1519 1519 1519 1519 1520 1520 1521 1521 1521 1521 1522 1522 1522 1523 1523 1523 1523 1523 1523 1523 1522 1522 1522 1521 1521 1520 1520 1520 1520 1519 1519 1519 1519 1518 1518 1518 1518 1517 1517 1517 1516 1516 1514 1514 1513 1513 1513 1514 1514 1514 1513 1513 1512 1512 1511
1507 1508 1509 1510 1511 1511 1512 1513 1514 1514 1515 1516 1516 1517 1517 1517 1518 1518 1518 1519 1519 1520 1520 1520 1521 1521 1521 1521 1521 1521 1521 1521 1521 1521 1521 1521 1520 1520 1519 1519 1518 1518 1518 1518 1517 1517 1517 1517 1516 1516 1516 1516 1515 1515 1514 1513 1512 1511 1511 1511 1511 1512 1512 1511 1511 1511 1511 1510 1510
1506 1507 1508 1509 1509 1510 1511 1512 1512 1513 1514 1515 1515 1516 1516 1516 1516 1517 1517 1518 1518 1519 1519 1519 1519 1519 1519 1519 1520 1520 1520 1520 1520 1520 1520 1519 1519 1518 1518 1517 1517 1516 1516 1516 1516 1516 1515 1515 1515 1515 1514 1514 1513 1513 1512 1511 1510 1509 1509 1509 1510 1510 1510 1510 1509 1509 1509 1509 1508
1505 1506 1506 1507 1508 1509 1510 1511 1511 1512 1513 1513 1514 1514 1515 1515 1516 1516 1516 1517 1517 1517 1518 1518 1517 1517 1517 1517 1518 1518 1518 1519 1519 1518 1518 1517 1517 1516 1516 1516 1515 1515 1514 1514 1514 1514 1514 1513 1513 1513 1512 1512 1511 1511 1510 1509 1508 1507 1507 1508 1508 1509 1508 1508 1507 1507 1507 1507 1507
1503 1504 1505 1506 1507 1508 1509 1510 1511 1511 1511 1512 1512 1513 1513 1514 1514 1515 1515 1516 1516 1516 1516 1516 1516 1516 1515 1516 1516 1516 1517 1517 1517 1517 1516 1516 1515 1515 1514 1514 1513 1513 1513 1512 1512 1512 1512 1511 1511 1511 1510 1510 1510 1509 1508 1507 1506 1505 1505 1506 1507 1507 1506 1506 1506 1505 1505 1505 1505
1502 1503 1504 1505 1506 1507 1508 1509 1510 1510 1511 1511 1511 1512 1513 1513 1513 1514 1514 1514 1514 1515 1514 1514 1514 1514 1514 1514 1514 1515 1516 1516 1516 1515 1515 1514 1514 1513 1512 1512 1511 1511 1511 1511 1511 1510 1510 1510 1509 1509 1509 1508 1508 1507 1506 1505 1503 1503 1504 1505 1505 1505 1505 1504 1504 1504 1504 1504 1504
1501 1502 1503 1504 1505 1506 1507 1508 1509 1509 1510 1510 1511 1511 1512 1512 1512 1512 1513 1513 1513 1513 1513 1512 1512 1512 1512 1512 1513 1514 1514 1514 1514 1514 1513 1512 1512 1511 1511 1510 1510 1509 1509 1509 1509 1508 1508 1508 1507 1507 1507 1506 1506 1505 1504 1503 1501 1502 1502 1503 1503 1503 1503 1503 1502 1502 1502 1502 1502
1500 1501 1502 1503 1504 1505 1506 1507 1507 1508 1509 1509 1510 1510 1510 1511 1511 1511 1511 1511 1511 1511 1511 1511 1510 1511 1511 1511 1512 1512 1512 1512 1512 1512 1511 1511 1510 1509 1508 1508 1508 1507 1507 1507 1507 1506 1506 1506 1506 1505 1505 1504 1503 1503 1502 1501 1501 1501 1501 1501 1501 1501 1501 1501 1501 1501 1501 1501 1500
1499 1500 1501 1502 1503 1504 1505 1506 1506 1507 1507 1508 1508 1508 1508 1509 1509 1509 1510 1510 1510 1510 1509 1509 1508 1509 1509 1510 1511 1511 1511 1511 1510 1510 1509 1509 1508 1507 1506 1506 1506 1506 1505 1505 1505 1505 1504 1504 1504 1503 1503 1502 1501 1501 1500 1500 1499 1499 1499 1499 1499 1499 1499 1499 1499 1499 1499 1499 1499
1498 1499 1500 1501 1502 1503 1504 1504 1505 1505 1506 1506 1506 1506 1506 1507 1507 1508 1508 1509 1509 1508 1507 1507 1507 1507 1508 1509 1509 1510 1509 1509 1508 1508 1507 1507 1506 1505 1504 1504 1504 1503 1503 1503 1503 1503 1502 1502 1502 1501 1501 1500 1500 1499 1499 1498 1498 1497 1497 1497 1497 1497 1496 1496 1496 1497 1497 1497 1497
1497 1498 1499 1500 1501 1501 1502 1503 1503 1503 1503 1504 1504 1504 1504 1505 1505 1506 1507 1507 1507 1506 1505 1505 1506 1506 1507 1508 1508 1508 1508 1507 1507 1506 1505 1505 1504 1503 1503 1502 1501 1501 1501 1501 1501 1501 1501 1500 1500 1499 1499 1498 1498 1497 1496 1496 1496 1496 1496 1495 1495 1494 1494 1494 1495 1495 1496 1496 1496
1496 1497 1498 1499 1500 1500 1501 1501 1501 1501 1502 1502 1502 1502 1502 1503 1504 1505 1506 1506 1504 1503 1503 1504 1504 1505 1506 1506 1506 1506 1506 1506 1505 1504 1504 1503 1502 1502 1501 1500 1500 1499 1499 1499 1499 1499 1498 1498 1498 1497 1497 1496 1496 1495 1494 1494 1494 1494 1494 1494 1493 1492 1492 1492 1493 1494 1494 1494 1494
1495 1496 1497 1498 1498 1499 1499 1499 1500 1500 1500 1501 1501 1501 1501 1502 1503 1504 1504 1503 1502 1502 1502 1503 1503 1504 1505 1505 1505 1504 1504 1503 1503 1503 1502 1501 1500 1500 1499 1498 1498 1497 1497 1497 1497 1497 1496 1496 1496 1496 1495 1495 1494 1493 1492 1492 1492 1493 1493 1492 1491 1491 1491 1491 1492 1492 1492 1492 1492
1494 1495 1496 1496 1496 1497 1497 1497 1498 1498 1499 1499 1499 1499 1500 1501 1501 1501 1501 1500 1500 1501 1501 1502 1502 1503 1503 1503 1503 1502 1502 1501 1501 1501 1500 1499 1498 1498 1497 1496 1496 1495 1495 1495 1495 1495 1494 1494 1494 1494 1493 1493 1492 1491 1491 1491 1491 1491 1491 1490 1490 1490 1490 1490 1490 1490 1491 1491 1491